AMAZONAS 5

Last updated on Tue Sep 22 2026 00:03:14 GMT+0000 (Coordinated Universal Time)

1 42934U 17053A 26264.19188935 -.00000286 00000+0 00000+0 0 9997 2 42934 0.0482 321.5293 0002320 250.1737 156.4522 1.00270337 33009
UTC large
Height (km)
Speed (km/s)
/
Latitude / Longitude
Inclination (degrees)
Orbital Period (minutes)
Azimuth
Elevation
Range (km)
Doppler Factor

Next 0 passes for location: London (51.5072 / 0.1276)

No passes found over London.
AMAZONAS 5